Location: Proctor
(47.8934°N, 114.3048°W)
Time: 22:14:28
(UTC+00:00)

Tiros 1 despin weight - Pass Details

Date: 30 June 2024
Orbit: 576 x 620 km, 48.2° (Epoch: 19 July)

Event Time Altitude Azimuth Distance (km) Brightness Sun altitude
Rises 17:18:47 0° 238° (WSW) 2,862 ? 52.4°
Reaches altitude 10° 17:21:06 10° 234° (SW) 1,966 ? 52.8°
Maximum altitude 17:25:31 55° 157° (SSE) 746 ? 53.4°
Drops below altitude 10° 17:29:59 10° 80° (E) 1,988 ? 54.1°
Sets 17:32:20 0° 76° (ENE) 2,897 ? 54.4°
